| time (UTC) | temp F | wind direction | speed MPH | gust MPH | rain 1hr in | rain 24hr in | rain mn in | humidity % | barometer mb |
| 20260510091324 | 35 | 224 | 0.0 | 0.0 | 0.00 | 0.00 | 0.00 | 99 | 1030.5 |
| 20260510090819 | 35 | 219 | 0.0 | 0.0 | 0.00 | 0.00 | 0.00 | 99 | 1030.4 |
| 20260510090317 | 36 | 222 | 0.0 | 0.0 | 0.00 | 0.00 | 0.00 | 99 | 1030.3 |
| 20260510085812 | 36 | 200 | 0.0 | 0.0 | 0.00 | 0.00 | 0.00 | 99 | 1030.2 |
| 20260510085307 | 36 | 215 | 0.0 | 0.0 | 0.00 | 0.00 | 0.00 | 99 | 1029.9 |
| 20260510084803 | 36 | 212 | 0.0 | 0.0 | 0.00 | 0.00 | 0.00 | 99 | 1030.2 |
| 20260510084300 | 37 | 224 | 0.0 | 0.0 | 0.00 | 0.00 | 0.00 | 99 | 1029.8 |
| 20260510083756 | 37 | 219 | 0.0 | 0.0 | 0.00 | 0.00 | 0.00 | 99 | 1030.0 |
| 20260510083253 | 38 | 213 | 0.0 | 0.0 | 0.00 | 0.00 | 0.00 | 99 | 1029.9 |
| 20260510082749 | 38 | 197 | 0.0 | 1.0 | 0.00 | 0.00 | 0.00 | 99 | 1030.2 |
| 20260510082246 | 39 | 216 | 0.0 | 0.0 | 0.00 | 0.00 | 0.00 | 99 | 1030.0 |
| 20260510081745 | 39 | 220 | 0.0 | 0.0 | 0.00 | 0.00 | 0.00 | 99 | 1030.0 |
| 20260510081241 | 39 | 197 | 0.0 | 0.0 | 0.00 | 0.00 | 0.00 | 99 | 1030.3 |
| 20260510080737 | 39 | 218 | 0.0 | 0.0 | 0.00 | 0.00 | 0.00 | 99 | 1030.3 |
| 20260510080232 | 39 | 218 | 0.0 | 0.0 | 0.00 | 0.00 | 0.00 | 99 | 1030.3 |
| 20260510075729 | 39 | 214 | 0.0 | 0.0 | 0.00 | 0.00 | 0.00 | 99 | 1030.4 |
| 20260510075227 | 39 | 221 | 0.0 | 0.0 | 0.00 | 0.00 | 0.00 | 99 | 1030.2 |
| 20260510074724 | 39 | 221 | 0.0 | 0.0 | 0.00 | 0.00 | 0.00 | 99 | 1030.5 |
| 20260510074220 | 39 | 218 | 0.0 | 0.0 | 0.00 | 0.00 | 0.00 | 99 | 1030.4 |
| 20260510073717 | 39 | 223 | 0.0 | 0.0 | 0.00 | 0.00 | 0.00 | 99 | 1030.4 |
| 20260510073212 | 39 | 222 | 0.0 | 0.0 | 0.00 | 0.00 | 0.00 | 99 | 1030.7 |
| 20260510072709 | 39 | 223 | 0.0 | 0.0 | 0.00 | 0.00 | 0.00 | 99 | 1030.5 |
| 20260510072205 | 39 | 224 | 0.0 | 0.0 | 0.00 | 0.00 | 0.00 | 99 | 1030.9 |
| 20260510071702 | 39 | 224 | 0.0 | 0.0 | 0.00 | 0.00 | 0.00 | 99 | 1030.8 |
| 20260510071159 | 39 | 223 | 0.0 | 0.0 | 0.00 | 0.00 | 0.00 | 99 | 1030.7 |
| 20260510070656 | 39 | 214 | 0.0 | 0.0 | 0.00 | 0.00 | 0.00 | 99 | 1030.9 |
| 20260510070154 | 39 | 212 | 0.0 | 0.0 | 0.00 | 0.00 | 0.00 | 99 | 1030.8 |
| 20260510065649 | 39 | 217 | 0.0 | 0.0 | 0.00 | 0.00 | 0.00 | 99 | 1030.8 |
| 20260510065145 | 39 | 224 | 0.0 | 0.0 | 0.00 | 0.00 | 0.00 | 98 | 1030.7 |
| 20260510064642 | 39 | 256 | 0.0 | 0.0 | 0.00 | 0.00 | 0.00 | 98 | 1030.8 |
| 20260510064139 | 39 | 233 | 1.0 | 1.0 | 0.00 | 0.00 | 0.00 | 98 | 1030.7 |
| 20260510063636 | 39 | 231 | 1.0 | 1.0 | 0.00 | 0.00 | 0.00 | 98 | 1030.9 |
| 20260510063133 | 39 | 224 | 0.0 | 0.0 | 0.00 | 0.00 | 0.00 | 98 | 1030.9 |
| 20260510062629 | 39 | 221 | 0.0 | 0.0 | 0.00 | 0.00 | 0.00 | 98 | 1030.7 |
| 20260510062124 | 39 | 237 | 1.0 | 2.0 | 0.00 | 0.00 | 0.00 | 97 | 1030.9 |
| 20260510061620 | 39 | 217 | 0.0 | 0.0 | 0.00 | 0.00 | 0.00 | 97 | 1030.5 |
| 20260510061118 | 39 | 214 | 0.0 | 1.0 | 0.00 | 0.00 | 0.00 | 97 | 1031.0 |
| 20260510060614 | 39 | 227 | 0.0 | 0.0 | 0.00 | 0.00 | 0.00 | 96 | 1031.2 |
| 20260510060110 | 39 | 227 | 0.0 | 0.0 | 0.00 | 0.00 | 0.00 | 96 | 1031.3 |
| 20260510055606 | 39 | 213 | 0.0 | 0.0 | 0.00 | 0.00 | 0.00 | 95 | 1031.2 |
| 20260510055105 | 39 | 220 | 0.0 | 0.0 | 0.00 | 0.00 | 0.00 | 94 | 1030.9 |
| 20260510054600 | 40 | 223 | 0.0 | 0.0 | 0.00 | 0.00 | 0.00 | 94 | 1031.0 |
| 20260510054055 | 40 | 248 | 1.0 | 1.0 | 0.00 | 0.00 | 0.00 | 93 | 1030.9 |
| 20260510053555 | 40 | 229 | 0.0 | 1.0 | 0.00 | 0.00 | 0.00 | 93 | 1030.8 |
| 20260510053052 | 40 | 264 | 1.0 | 1.0 | 0.00 | 0.00 | 0.00 | 92 | 1030.8 |
| 20260510052548 | 40 | 245 | 1.0 | 2.0 | 0.00 | 0.00 | 0.00 | 91 | 1030.9 |
| 20260510052044 | 40 | 296 | 2.0 | 2.0 | 0.00 | 0.00 | 0.00 | 91 | 1030.9 |
| 20260510051540 | 40 | 249 | 1.0 | 1.0 | 0.00 | 0.00 | 0.00 | 90 | 1031.0 |
| 20260510051037 | 40 | 248 | 1.0 | 1.0 | 0.00 | 0.00 | 0.00 | 90 | 1030.9 |
| 20260510050534 | 40 | 235 | 0.0 | 0.0 | 0.00 | 0.00 | 0.00 | 90 | 1030.8 |
| 20260510050031 | 40 | 224 | 0.0 | 0.0 | 0.00 | 0.00 | 0.00 | 90 | 1031.0 |
| 20260510045528 | 40 | 249 | 0.0 | 0.0 | 0.00 | 0.00 | 0.00 | 90 | 1030.8 |
| 20260510045024 | 40 | 260 | 0.0 | 1.0 | 0.00 | 0.00 | 0.00 | 90 | 1030.8 |
| 20260510044521 | 40 | 345 | 3.0 | 3.0 | 0.00 | 0.00 | 0.00 | 90 | 1031.3 |
| 20260510044019 | 40 | 308 | 1.0 | 2.0 | 0.00 | 0.00 | 0.00 | 90 | 1031.0 |
| 20260510043514 | 40 | 72 | 4.0 | 5.0 | 0.00 | 0.00 | 0.00 | 89 | 1031.2 |
| 20260510043009 | 40 | 304 | 4.0 | 6.0 | 0.00 | 0.00 | 0.00 | 89 | 1031.3 |
| 20260510042503 | 40 | 61 | 4.0 | 6.0 | 0.00 | 0.00 | 0.00 | 89 | 1031.2 |
| 20260510041958 | 41 | 354 | 3.0 | 6.0 | 0.00 | 0.00 | 0.00 | 89 | 1031.4 |
| 20260510041455 | 41 | 354 | 3.0 | 6.0 | 0.00 | 0.00 | 0.00 | 89 | 1031.3 |
| 20260510040954 | 41 | 269 | 0.0 | 1.0 | 0.00 | 0.00 | 0.00 | 89 | 1031.2 |
| 20260510040450 | 41 | 67 | 2.0 | 3.0 | 0.00 | 0.00 | 0.00 | 89 | 1031.0 |
| 20260510035946 | 41 | 237 | 0.0 | 1.0 | 0.00 | 0.00 | 0.00 | 89 | 1030.9 |
| 20260510035443 | 41 | 343 | 4.0 | 6.0 | 0.00 | 0.00 | 0.00 | 89 | 1030.9 |
| 20260510034942 | 42 | 335 | 2.0 | 3.0 | 0.00 | 0.00 | 0.00 | 88 | 1031.0 |
| 20260510034441 | 42 | 8 | 5.0 | 9.0 | 0.00 | 0.00 | 0.00 | 88 | 1030.9 |
| 20260510033937 | 43 | 149 | 1.0 | 2.0 | 0.00 | 0.00 | 0.00 | 87 | 1030.3 |
| 20260510033433 | 43 | 233 | 2.0 | 3.0 | 0.00 | 0.00 | 0.00 | 87 | 1030.3 |
| 20260510032930 | 43 | 236 | 0.0 | 1.0 | 0.00 | 0.00 | 0.00 | 86 | 1030.3 |
| 20260510032427 | 43 | 70 | 3.0 | 3.0 | 0.00 | 0.00 | 0.00 | 86 | 1030.3 |
| 20260510031922 | 43 | 236 | 2.0 | 3.0 | 0.00 | 0.00 | 0.00 | 85 | 1030.4 |
| 20260510031418 | 43 | 86 | 1.0 | 3.0 | 0.00 | 0.00 | 0.00 | 85 | 1030.0 |
| 20260510030913 | 43 | 43 | 3.0 | 3.0 | 0.00 | 0.00 | 0.00 | 85 | 1030.2 |
| 20260510030409 | 43 | 352 | 3.0 | 3.0 | 0.00 | 0.00 | 0.00 | 85 | 1030.2 |
| 20260510025907 | 43 | 38 | 3.0 | 5.0 | 0.00 | 0.00 | 0.00 | 86 | 1030.3 |
| 20260510025405 | 43 | 283 | 3.0 | 3.0 | 0.00 | 0.00 | 0.00 | 86 | 1029.8 |
| 20260510024902 | 43 | 74 | 0.0 | 1.0 | 0.00 | 0.00 | 0.00 | 86 | 1029.8 |
| 20260510024358 | 43 | 297 | 3.0 | 5.0 | 0.00 | 0.00 | 0.00 | 86 | 1029.4 |
| 20260510023854 | 43 | 247 | 3.0 | 3.0 | 0.00 | 0.00 | 0.00 | 86 | 1029.1 |
| 20260510023350 | 43 | 36 | 2.0 | 3.0 | 0.00 | 0.00 | 0.00 | 86 | 1028.8 |
| 20260510022848 | 43 | 327 | 4.0 | 6.0 | 0.00 | 0.00 | 0.00 | 86 | 1028.8 |
| 20260510022347 | 43 | 284 | 4.0 | 5.0 | 0.00 | 0.00 | 0.00 | 85 | 1028.6 |
| 20260510021846 | 43 | 285 | 3.0 | 5.0 | 0.00 | 0.00 | 0.00 | 85 | 1028.5 |
| 20260510021344 | 44 | 191 | 3.0 | 3.0 | 0.00 | 0.00 | 0.00 | 84 | 1028.6 |
| 20260510020841 | 44 | 243 | 2.0 | 2.0 | 0.00 | 0.00 | 0.00 | 84 | 1027.9 |
| 20260510020340 | 44 | 353 | 4.0 | 8.0 | 0.00 | 0.00 | 0.00 | 82 | 1027.8 |
| 20260510015836 | 44 | 250 | 5.0 | 9.0 | 0.00 | 0.00 | 0.00 | 81 | 1027.6 |
| 20260510015332 | 46 | 121 | 3.0 | 6.0 | 0.00 | 0.00 | 0.00 | 78 | 1027.1 |
| 20260510014828 | 46 | 51 | 5.0 | 7.0 | 0.00 | 0.00 | 0.00 | 76 | 1026.8 |
| 20260510014325 | 48 | 79 | 7.0 | 13.0 | 0.00 | 0.00 | 0.00 | 73 | 1026.5 |
| 20260510013821 | 49 | 94 | 4.0 | 8.0 | 0.00 | 0.00 | 0.00 | 70 | 1026.1 |
| 20260510013317 | 50 | 63 | 5.0 | 6.0 | 0.00 | 0.00 | 0.00 | 67 | 1025.7 |
| 20260510012813 | 52 | 17 | 11.0 | 14.0 | 0.00 | 0.00 | 0.00 | 63 | 1025.5 |
| 20260510012312 | 57 | 21 | 8.0 | 13.0 | 0.00 | 0.00 | 0.00 | 53 | 1025.2 |
| 20260510011807 | 61 | 19 | 12.0 | 18.0 | 0.00 | 0.00 | 0.00 | 36 | 1024.7 |
| 20260510011303 | 61 | 21 | 2.0 | 2.0 | 0.00 | 0.00 | 0.00 | 36 | 1024.4 |
| 20260510010759 | 61 | 113 | 3.0 | 3.0 | 0.00 | 0.00 | 0.00 | 35 | 1024.5 |
| 20260510010256 | 61 | 268 | 2.0 | 2.0 | 0.00 | 0.00 | 0.00 | 35 | 1024.4 |
| 20260510005753 | 61 | 220 | 0.0 | 0.0 | 0.00 | 0.00 | 0.00 | 35 | 1024.1 |
| 20260510005249 | 60 | 216 | 0.0 | 1.0 | 0.00 | 0.00 | 0.00 | 35 | 1024.0 |
| 20260510004747 | 60 | 94 | 4.0 | 5.0 | 0.00 | 0.00 | 0.00 | 34 | 1024.0 |
| 20260510004245 | 61 | 256 | 0.0 | 0.0 | 0.00 | 0.00 | 0.00 | 35 | 1024.0 |
| 20260510003742 | 61 | 221 | 0.0 | 1.0 | 0.00 | 0.00 | 0.00 | 35 | 1023.6 |
| 20260510003238 | 61 | 50 | 2.0 | 2.0 | 0.00 | 0.00 | 0.00 | 34 | 1023.3 |
| 20260510002737 | 61 | 210 | 0.0 | 1.0 | 0.00 | 0.00 | 0.00 | 34 | 1023.7 |
| 20260510002235 | 62 | 278 | 2.0 | 3.0 | 0.00 | 0.00 | 0.00 | 33 | 1023.1 |
| 20260510001731 | 62 | 128 | 1.0 | 1.0 | 0.00 | 0.00 | 0.00 | 33 | 1023.6 |
| 20260510001230 | 62 | 234 | 1.0 | 1.0 | 0.00 | 0.00 | 0.00 | 34 | 1023.3 |
| 20260510000725 | 62 | 194 | 1.0 | 2.0 | 0.00 | 0.00 | 0.00 | 34 | 1023.3 |
| 20260510000223 | 62 | 226 | 0.0 | 0.0 | 0.00 | 0.00 | 0.00 | 33 | 1023.2 |
| 20260509235720 | 62 | 186 | 1.0 | 2.0 | 0.00 | 0.00 | 0.00 | 34 | 1023.3 |
| 20260509235216 | 63 | 314 | 3.0 | 3.0 | 0.00 | 0.00 | 0.00 | 33 | 1023.1 |
| 20260509234712 | 62 | 218 | 0.0 | 0.0 | 0.00 | 0.00 | 0.00 | 37 | 1023.0 |
| 20260509234209 | 62 | 221 | 0.0 | 1.0 | 0.00 | 0.00 | 0.00 | 35 | 1023.0 |
| 20260509233708 | 62 | 295 | 0.0 | 1.0 | 0.00 | 0.00 | 0.00 | 34 | 1023.0 |
| 20260509233205 | 62 | 249 | 0.0 | 0.0 | 0.00 | 0.00 | 0.00 | 34 | 1023.1 |
| 20260509232701 | 62 | 220 | 0.0 | 0.0 | 0.00 | 0.00 | 0.00 | 35 | 1022.7 |
| 20260509232157 | 63 | 120 | 6.0 | 8.0 | 0.00 | 0.00 | 0.00 | 33 | 1023.0 |
| 20260509231654 | 62 | 226 | 2.0 | 2.0 | 0.00 | 0.00 | 0.00 | 34 | 1022.6 |
| 20260509231152 | 63 | 229 | 2.0 | 2.0 | 0.00 | 0.00 | 0.00 | 34 | 1022.7 |
| 20260509230649 | 62 | 340 | 2.0 | 3.0 | 0.00 | 0.00 | 0.00 | 34 | 1022.8 |
| 20260509230146 | 62 | 344 | 1.0 | 1.0 | 0.00 | 0.00 | 0.00 | 33 | 1023.1 |
| 20260509225641 | 62 | 249 | 0.0 | 0.0 | 0.00 | 0.00 | 0.00 | 34 | 1023.0 |
| 20260509225137 | 61 | 243 | 1.0 | 1.0 | 0.00 | 0.00 | 0.00 | 34 | 1022.8 |
| 20260509224632 | 61 | 154 | 5.0 | 6.0 | 0.00 | 0.00 | 0.00 | 34 | 1022.7 |
| 20260509224129 | 61 | 138 | 0.0 | 0.0 | 0.00 | 0.00 | 0.00 | 35 | 1022.7 |
| 20260509223626 | 61 | 217 | 0.0 | 1.0 | 0.00 | 0.00 | 0.00 | 35 | 1022.8 |
| 20260509223118 | 60 | 232 | 0.0 | 0.0 | 0.00 | 0.00 | 0.00 | 35 | 1022.7 |
| 20260509222614 | 60 | 192 | 1.0 | 2.0 | 0.00 | 0.00 | 0.00 | 34 | 1022.7 |
| 20260509222110 | 60 | 223 | 1.0 | 1.0 | 0.00 | 0.00 | 0.00 | 36 | 1023.1 |
| 20260509221605 | 60 | 161 | 3.0 | 3.0 | 0.00 | 0.00 | 0.00 | 34 | 1022.6 |
| 20260509221102 | 61 | 207 | 0.0 | 0.0 | 0.00 | 0.00 | 0.00 | 34 | 1023.1 |
| 20260509220558 | 61 | 169 | 3.0 | 3.0 | 0.00 | 0.00 | 0.00 | 35 | 1022.7 |
| 20260509220055 | 60 | 209 | 1.0 | 1.0 | 0.00 | 0.00 | 0.00 | 34 | 1023.0 |
| 20260509215550 | 61 | 357 | 2.0 | 5.0 | 0.00 | 0.00 | 0.00 | 34 | 1023.0 |
| 20260509215048 | 61 | 86 | 2.0 | 2.0 | 0.00 | 0.00 | 0.00 | 34 | 1023.0 |
| 20260509214545 | 61 | 157 | 2.0 | 2.0 | 0.00 | 0.00 | 0.00 | 33 | 1023.0 |
| 20260509214042 | 61 | 176 | 1.0 | 1.0 | 0.00 | 0.00 | 0.00 | 33 | 1023.0 |
| 20260509213538 | 62 | 359 | 3.0 | 3.0 | 0.00 | 0.00 | 0.00 | 33 | 1023.0 |
| 20260509213035 | 62 | 28 | 1.0 | 3.0 | 0.00 | 0.00 | 0.00 | 32 | 1023.1 |
| 20260509212532 | 62 | 233 | 0.0 | 1.0 | 0.00 | 0.00 | 0.00 | 34 | 1023.3 |
| 20260509212029 | 62 | 208 | 1.0 | 1.0 | 0.00 | 0.00 | 0.00 | 32 | 1022.8 |
| 20260509211524 | 63 | 215 | 1.0 | 1.0 | 0.00 | 0.00 | 0.00 | 32 | 1023.0 |
| 20260509211021 | 64 | 156 | 4.0 | 5.0 | 0.00 | 0.00 | 0.00 | 31 | 1023.0 |
| 20260509210518 | 63 | 320 | 2.0 | 3.0 | 0.00 | 0.00 | 0.00 | 33 | 1023.0 |
| 20260509210014 | 63 | 232 | 1.0 | 1.0 | 0.00 | 0.00 | 0.00 | 32 | 1022.8 |
| 20260509205508 | 63 | 218 | 1.0 | 1.0 | 0.00 | 0.00 | 0.00 | 32 | 1022.7 |
| 20260509205004 | 63 | 237 | 0.0 | 1.0 | 0.00 | 0.00 | 0.00 | 31 | 1022.7 |
| 20260509204501 | 63 | 208 | 2.0 | 2.0 | 0.00 | 0.00 | 0.00 | 30 | 1022.8 |
| 20260509203957 | 64 | 168 | 2.0 | 2.0 | 0.00 | 0.00 | 0.00 | 29 | 1022.6 |
| 20260509203453 | 63 | 222 | 0.0 | 0.0 | 0.00 | 0.00 | 0.00 | 31 | 1022.3 |
| 20260509202951 | 62 | 237 | 0.0 | 0.0 | 0.00 | 0.00 | 0.00 | 31 | 1022.7 |
| 20260509202447 | 63 | 263 | 3.0 | 3.0 | 0.00 | 0.00 | 0.00 | 31 | 1023.0 |
| 20260509201942 | 63 | 219 | 8.0 | 10.0 | 0.00 | 0.00 | 0.00 | 29 | 1023.0 |
| 20260509201437 | 64 | 252 | 3.0 | 5.0 | 0.00 | 0.00 | 0.00 | 25 | 1022.8 |
| 20260509200934 | 64 | 230 | 1.0 | 1.0 | 0.00 | 0.00 | 0.00 | 26 | 1022.8 |
| 20260509200428 | 64 | 239 | 0.0 | 1.0 | 0.00 | 0.00 | 0.00 | 25 | 1022.6 |
| 20260509195925 | 64 | 224 | 3.0 | 3.0 | 0.00 | 0.00 | 0.00 | 27 | 1022.7 |
| 20260509195421 | 65 | 238 | 1.0 | 1.0 | 0.00 | 0.00 | 0.00 | 29 | 1022.7 |
| 20260509194920 | 65 | 162 | 3.0 | 3.0 | 0.00 | 0.00 | 0.00 | 25 | 1022.7 |
| 20260509194417 | 66 | 263 | 2.0 | 3.0 | 0.00 | 0.00 | 0.00 | 24 | 1023.0 |
| 20260509193914 | 65 | 219 | 3.0 | 5.0 | 0.00 | 0.00 | 0.00 | 24 | 1022.7 |
| 20260509193413 | 67 | 226 | 0.0 | 1.0 | 0.00 | 0.00 | 0.00 | 24 | 1023.0 |
| 20260509192909 | 66 | 223 | 1.0 | 2.0 | 0.00 | 0.00 | 0.00 | 24 | 1023.0 |
| 20260509192406 | 65 | 21 | 6.0 | 9.0 | 0.00 | 0.00 | 0.00 | 23 | 1023.0 |
| 20260509191901 | 66 | 206 | 5.0 | 6.0 | 0.00 | 0.00 | 0.00 | 24 | 1023.0 |
| 20260509191357 | 68 | 225 | 6.0 | 7.0 | 0.00 | 0.00 | 0.00 | 22 | 1023.0 |
| 20260509190853 | 67 | 280 | 5.0 | 6.0 | 0.00 | 0.00 | 0.00 | 24 | 1023.1 |
| 20260509190350 | 66 | 297 | 3.0 | 3.0 | 0.00 | 0.00 | 0.00 | 27 | 1022.8 |
| 20260509185848 | 68 | 286 | 3.0 | 5.0 | 0.00 | 0.00 | 0.00 | 24 | 1023.0 |
| 20260509185344 | 66 | 274 | 6.0 | 10.0 | 0.00 | 0.00 | 0.00 | 24 | 1023.1 |
| 20260509184841 | 66 | 213 | 2.0 | 2.0 | 0.00 | 0.00 | 0.00 | 26 | 1023.0 |
| 20260509184338 | 66 | 340 | 5.0 | 7.0 | 0.00 | 0.00 | 0.00 | 24 | 1023.2 |
| 20260509183835 | 67 | 306 | 3.0 | 3.0 | 0.00 | 0.00 | 0.00 | 26 | 1023.3 |
| 20260509183330 | 66 | 295 | 6.0 | 7.0 | 0.00 | 0.00 | 0.00 | 25 | 1023.3 |
| 20260509182826 | 64 | 298 | 5.0 | 6.0 | 0.00 | 0.00 | 0.00 | 25 | 1023.2 |
| 20260509182324 | 65 | 279 | 6.0 | 7.0 | 0.00 | 0.00 | 0.00 | 22 | 1023.3 |
| 20260509181821 | 66 | 126 | 5.0 | 6.0 | 0.00 | 0.00 | 0.00 | 23 | 1023.3 |
| 20260509181318 | 65 | 270 | 2.0 | 3.0 | 0.00 | 0.00 | 0.00 | 27 | 1023.2 |
| 20260509180815 | 66 | 15 | 5.0 | 6.0 | 0.00 | 0.00 | 0.00 | 27 | 1023.2 |
| 20260509180311 | 64 | 339 | 7.0 | 11.0 | 0.00 | 0.00 | 0.00 | 27 | 1023.2 |
| 20260509175808 | 64 | 266 | 6.0 | 7.0 | 0.00 | 0.00 | 0.00 | 27 | 1023.3 |
| 20260509175306 | 63 | 322 | 6.0 | 9.0 | 0.00 | 0.00 | 0.00 | 28 | 1023.0 |
| 20260509174801 | 62 | 260 | 6.0 | 9.0 | 0.00 | 0.00 | 0.00 | 27 | 1023.2 |
| 20260509174256 | 63 | 203 | 4.0 | 5.0 | 0.00 | 0.00 | 0.00 | 29 | 1023.6 |
| 20260509173752 | 64 | 264 | 4.0 | 6.0 | 0.00 | 0.00 | 0.00 | 25 | 1023.6 |
| 20260509173248 | 63 | 170 | 5.0 | 7.0 | 0.00 | 0.00 | 0.00 | 26 | 1023.3 |
| 20260509172744 | 62 | 22 | 7.0 | 9.0 | 0.00 | 0.00 | 0.00 | 26 | 1023.8 |
| 20260509172241 | 62 | 292 | 7.0 | 8.0 | 0.00 | 0.00 | 0.00 | 28 | 1023.7 |
| 20260509171736 | 63 | 226 | 1.0 | 2.0 | 0.00 | 0.00 | 0.00 | 27 | 1023.3 |
| 20260509171233 | 63 | 266 | 6.0 | 8.0 | 0.00 | 0.00 | 0.00 | 25 | 1023.5 |
| 20260509170730 | 63 | 248 | 4.0 | 5.0 | 0.00 | 0.00 | 0.00 | 26 | 1023.2 |
| 20260509170225 | 63 | 234 | 5.0 | 7.0 | 0.00 | 0.00 | 0.00 | 25 | 1023.8 |
| 20260509165724 | 63 | 217 | 2.0 | 3.0 | 0.00 | 0.00 | 0.00 | 27 | 1023.6 |
| 20260509165219 | 62 | 145 | 7.0 | 11.0 | 0.00 | 0.00 | 0.00 | 27 | 1023.3 |
| 20260509164716 | 63 | 192 | 4.0 | 5.0 | 0.00 | 0.00 | 0.00 | 27 | 1023.3 |
| 20260509164211 | 62 | 235 | 5.0 | 7.0 | 0.00 | 0.00 | 0.00 | 25 | 1023.2 |
| 20260509163709 | 62 | 289 | 9.0 | 13.0 | 0.00 | 0.00 | 0.00 | 26 | 1023.2 |
| 20260509163206 | 62 | 255 | 9.0 | 10.0 | 0.00 | 0.00 | 0.00 | 28 | 1023.5 |
| 20260509162703 | 61 | 231 | 4.0 | 5.0 | 0.00 | 0.00 | 0.00 | 31 | 1023.2 |
| 20260509162159 | 61 | 282 | 3.0 | 3.0 | 0.00 | 0.00 | 0.00 | 35 | 1023.5 |
| 20260509161654 | 61 | 216 | 2.0 | 2.0 | 0.00 | 0.00 | 0.00 | 33 | 1023.3 |
| 20260509161150 | 62 | 234 | 2.0 | 2.0 | 0.00 | 0.00 | 0.00 | 33 | 1023.3 |
| 20260509160646 | 61 | 20 | 2.0 | 2.0 | 0.00 | 0.00 | 0.00 | 32 | 1023.2 |
| 20260509160141 | 60 | 12 | 1.0 | 1.0 | 0.00 | 0.00 | 0.00 | 33 | 1023.3 |
| 20260509155638 | 60 | 181 | 1.0 | 1.0 | 0.00 | 0.00 | 0.00 | 32 | 1023.2 |
| 20260509155134 | 59 | 205 | 2.0 | 3.0 | 0.00 | 0.00 | 0.00 | 33 | 1023.3 |
| 20260509154630 | 59 | 14 | 5.0 | 7.0 | 0.00 | 0.00 | 0.00 | 33 | 1023.3 |
| 20260509154127 | 59 | 318 | 4.0 | 5.0 | 0.00 | 0.00 | 0.00 | 33 | 1023.5 |
| 20260509153624 | 57 | 126 | 2.0 | 2.0 | 0.00 | 0.00 | 0.00 | 33 | 1023.6 |
| 20260509153121 | 57 | 5 | 3.0 | 3.0 | 0.00 | 0.00 | 0.00 | 35 | 1023.5 |
| 20260509152617 | 57 | 40 | 3.0 | 3.0 | 0.00 | 0.00 | 0.00 | 34 | 1023.3 |
| 20260509152114 | 56 | 358 | 3.0 | 3.0 | 0.00 | 0.00 | 0.00 | 35 | 1023.6 |
| 20260509151610 | 57 | 246 | 3.0 | 3.0 | 0.00 | 0.00 | 0.00 | 36 | 1023.3 |
| 20260509151108 | 57 | 226 | 0.0 | 1.0 | 0.00 | 0.00 | 0.00 | 37 | 1023.5 |
| 20260509150606 | 57 | 166 | 0.0 | 1.0 | 0.00 | 0.00 | 0.00 | 38 | 1023.8 |
| 20260509150104 | 56 | 176 | 0.0 | 1.0 | 0.00 | 0.00 | 0.00 | 37 | 1023.5 |
| 20260509145559 | 55 | 24 | 1.0 | 2.0 | 0.00 | 0.00 | 0.00 | 40 | 1023.7 |
| 20260509145055 | 55 | 42 | 0.0 | 1.0 | 0.00 | 0.00 | 0.00 | 39 | 1024.0 |
| 20260509144552 | 55 | 178 | 1.0 | 1.0 | 0.00 | 0.00 | 0.00 | 40 | 1023.7 |
| 20260509144049 | 53 | 201 | 1.0 | 1.0 | 0.00 | 0.00 | 0.00 | 43 | 1023.8 |
| 20260509143546 | 53 | 201 | 0.0 | 0.0 | 0.00 | 0.00 | 0.00 | 46 | 1024.1 |
| 20260509143044 | 51 | 148 | 2.0 | 2.0 | 0.00 | 0.00 | 0.00 | 46 | 1024.0 |
| 20260509142539 | 49 | 192 | 0.0 | 0.0 | 0.00 | 0.00 | 0.00 | 52 | 1024.2 |
| 20260509142035 | 46 | 193 | 0.0 | 0.0 | 0.00 | 0.00 | 0.00 | 55 | 1024.2 |
| 20260509141531 | 44 | 308 | 1.0 | 1.0 | 0.00 | 0.00 | 0.00 | 57 | 1023.8 |
| 20260509141028 | 43 | 197 | 0.0 | 0.0 | 0.00 | 0.00 | 0.00 | 58 | 1023.8 |
| 20260509140525 | 42 | 212 | 0.0 | 0.0 | 0.00 | 0.00 | 0.00 | 62 | 1024.0 |
| 20260509140023 | 42 | 225 | 0.0 | 0.0 | 0.00 | 0.00 | 0.00 | 60 | 1024.1 |
| 20260509135520 | 42 | 174 | 2.0 | 2.0 | 0.00 | 0.00 | 0.00 | 59 | 1023.8 |
| 20260509135017 | 43 | 183 | 1.0 | 1.0 | 0.00 | 0.00 | 0.00 | 61 | 1023.8 |
| 20260509134514 | 44 | 212 | 0.0 | 0.0 | 0.00 | 0.00 | 0.00 | 58 | 1024.1 |
| 20260509134012 | 44 | 193 | 1.0 | 1.0 | 0.00 | 0.00 | 0.00 | 57 | 1024.0 |
| 20260509133508 | 45 | 228 | 1.0 | 2.0 | 0.00 | 0.00 | 0.00 | 54 | 1024.1 |
| 20260509133007 | 45 | 203 | 1.0 | 1.0 | 0.00 | 0.00 | 0.00 | 52 | 1024.0 |
| 20260509132505 | 47 | 222 | 0.0 | 0.0 | 0.00 | 0.00 | 0.00 | 51 | 1023.6 |
| 20260509132002 | 48 | 199 | 0.0 | 1.0 | 0.00 | 0.00 | 0.00 | 47 | 1023.7 |
| 20260509131458 | 49 | 220 | 0.0 | 0.0 | 0.00 | 0.00 | 0.00 | 46 | 1023.6 |
| 20260509130955 | 49 | 230 | 1.0 | 1.0 | 0.00 | 0.00 | 0.00 | 42 | 1023.8 |
| 20260509130450 | 49 | 231 | 1.0 | 2.0 | 0.00 | 0.00 | 0.00 | 43 | 1023.2 |
| 20260509125942 | 49 | 258 | 3.0 | 3.0 | 0.00 | 0.00 | 0.00 | 43 | 1023.2 |
| 20260509125439 | 49 | 221 | 3.0 | 3.0 | 0.00 | 0.00 | 0.00 | 45 | 1023.0 |
| 20260509124934 | 50 | 260 | 1.0 | 1.0 | 0.00 | 0.00 | 0.00 | 45 | 1023.0 |
| 20260509124432 | 51 | 221 | 1.0 | 1.0 | 0.00 | 0.00 | 0.00 | 44 | 1023.0 |
| 20260509123929 | 51 | 252 | 2.0 | 2.0 | 0.00 | 0.00 | 0.00 | 42 | 1023.0 |
| 20260509123427 | 51 | 320 | 1.0 | 2.0 | 0.00 | 0.00 | 0.00 | 42 | 1022.8 |
| 20260509122922 | 52 | 19 | 1.0 | 2.0 | 0.00 | 0.00 | 0.00 | 40 | 1022.5 |
| 20260509122419 | 51 | 208 | 2.0 | 2.0 | 0.00 | 0.00 | 0.00 | 42 | 1022.6 |
| 20260509121916 | 51 | 184 | 1.0 | 1.0 | 0.00 | 0.00 | 0.00 | 43 | 1022.0 |
| 20260509121413 | 51 | 239 | 2.0 | 2.0 | 0.00 | 0.00 | 0.00 | 42 | 1021.8 |
| 20260509120911 | 51 | 336 | 4.0 | 6.0 | 0.00 | 0.00 | 0.00 | 42 | 1021.7 |
| 20260509120408 | 51 | 232 | 4.0 | 5.0 | 0.00 | 0.00 | 0.00 | 44 | 1021.6 |
| 20260509115906 | 50 | 240 | 3.0 | 3.0 | 0.00 | 0.00 | 0.00 | 45 | 1021.8 |
| 20260509115403 | 50 | 237 | 5.0 | 6.0 | 0.00 | 0.00 | 0.00 | 47 | 1021.8 |
| 20260509114901 | 49 | 320 | 5.0 | 6.0 | 0.00 | 0.00 | 0.00 | 49 | 1021.7 |
| 20260509114359 | 49 | 231 | 2.0 | 2.0 | 0.00 | 0.00 | 0.00 | 49 | 1021.8 |
| 20260509113858 | 48 | 244 | 3.0 | 3.0 | 0.00 | 0.00 | 0.00 | 50 | 1021.7 |
| 20260509113355 | 47 | 237 | 5.0 | 6.0 | 0.00 | 0.00 | 0.00 | 52 | 1021.6 |
| 20260509112852 | 48 | 243 | 3.0 | 5.0 | 0.00 | 0.00 | 0.00 | 52 | 1021.4 |
| 20260509112349 | 47 | 286 | 5.0 | 6.0 | 0.00 | 0.00 | 0.00 | 53 | 1021.4 |
| 20260509111846 | 47 | 312 | 5.0 | 6.0 | 0.00 | 0.00 | 0.00 | 55 | 1021.6 |
| 20260509111343 | 47 | 236 | 5.0 | 7.0 | 0.00 | 0.00 | 0.00 | 53 | 1021.6 |
| 20260509110841 | 46 | 222 | 5.0 | 6.0 | 0.00 | 0.00 | 0.00 | 54 | 1021.6 |
| 20260509110336 | 46 | 268 | 3.0 | 5.0 | 0.00 | 0.00 | 0.00 | 57 | 1021.6 |
| 20260509105835 | 44 | 244 | 3.0 | 5.0 | 0.00 | 0.00 | 0.00 | 60 | 1021.7 |
| 20260509105333 | 45 | 247 | 5.0 | 5.0 | 0.00 | 0.00 | 0.00 | 61 | 1021.8 |
| 20260509104829 | 44 | 272 | 3.0 | 3.0 | 0.00 | 0.00 | 0.00 | 60 | 1022.0 |
| 20260509104326 | 44 | 215 | 3.0 | 3.0 | 0.00 | 0.00 | 0.00 | 62 | 1022.2 |
| 20260509103824 | 42 | 244 | 3.0 | 5.0 | 0.00 | 0.00 | 0.00 | 67 | 1022.1 |
| 20260509103321 | 41 | 228 | 3.0 | 3.0 | 0.00 | 0.00 | 0.00 | 69 | 1022.0 |
| 20260509102820 | 40 | 264 | 2.0 | 2.0 | 0.00 | 0.00 | 0.00 | 72 | 1021.8 |
| 20260509102317 | 40 | 234 | 2.0 | 2.0 | 0.00 | 0.00 | 0.00 | 73 | 1022.0 |
| 20260509101812 | 40 | 271 | 3.0 | 3.0 | 0.00 | 0.00 | 0.00 | 73 | 1022.0 |
| 20260509101308 | 41 | 234 | 1.0 | 2.0 | 0.00 | 0.00 | 0.00 | 71 | 1021.8 |
| 20260509100807 | 40 | 234 | 2.0 | 2.0 | 0.00 | 0.00 | 0.00 | 75 | 1022.1 |
| 20260509100303 | 39 | 250 | 1.0 | 1.0 | 0.00 | 0.00 | 0.00 | 79 | 1022.5 |
| 20260509095759 | 38 | 186 | 0.0 | 0.0 | 0.00 | 0.00 | 0.00 | 79 | 1022.3 |
| 20260509095257 | 39 | 236 | 1.0 | 1.0 | 0.00 | 0.00 | 0.00 | 75 | 1022.1 |
| 20260509094754 | 39 | 199 | 0.0 | 1.0 | 0.00 | 0.00 | 0.00 | 77 | 1022.2 |
| 20260509094251 | 39 | 203 | 1.0 | 1.0 | 0.00 | 0.00 | 0.00 | 76 | 1022.3 |
| 20260509093749 | 39 | 292 | 1.0 | 2.0 | 0.00 | 0.00 | 0.00 | 76 | 1022.3 |
| 20260509093246 | 39 | 216 | 0.0 | 0.0 | 0.00 | 0.00 | 0.00 | 76 | 1022.2 |
| 20260509092744 | 40 | 260 | 1.0 | 1.0 | 0.00 | 0.00 | 0.00 | 75 | 1022.3 |
| 20260509092242 | 40 | 219 | 0.0 | 0.0 | 0.00 | 0.00 | 0.00 | 73 | 1022.2 |
| 20260509091739 | 40 | 202 | 1.0 | 1.0 | 0.00 | 0.00 | 0.00 | 73 | 1022.3 |